Location: North Evanston
(42.0634°N, 87.6976°W)
Time: 13:58:36
(UTC+00:00)

Injun/Solrad 3 - Pass Details

Date: 17 May 2026
Orbit: 867 x 989 km, 66.8° (Epoch: 7 June)

Event Time Altitude Azimuth Distance (km) Brightness Sun altitude
Rises 04:07:04 0° 336° (NNW) 3,673 12.4 -24.4°
Reaches altitude 10° 04:10:20 10° 352° (N) 2,737 11.3 -24.7°
Maximum altitude 04:15:06 21° 40° (NE) 2,049 9.9 -25.0°
Enters shadow 04:19:22 12° 85° (E) 2,626 10.1 -25.3°
Drops below altitude 10° 04:19:52 10° 88° (E) 2,748 - -25.4°
Sets 04:23:08 0° 104° (ESE) 3,691 - -25.6°
